Theta_e
331 336 344 353 353 353 352 352 351 349 347 346 346 346 345 344 342 343 342 342 341 341 340 340 340 341 339 339 340 340 339 343
329 334 342 353 354 354 353 351 350 350 349 348 347 346 345 343 342 341 341 340 340 340 340 340 340 342 341 340 340 340 341 342
332 333 340 352 353 353 353 352 351 351 350 350 348 345 343 342 340 341 340 340 339 339 339 339 340 341 341 341 340 340 341 340
334 337 342 346 350 353 352 352 352 352 350 347 345 343 340 336 335 335 336 337 337 338 337 338 339 340 341 340 340 339 339 341
334 337 339 338 341 340 343 352 351 348 345 344 341 336 334 335 335 335 334 333 334 336 336 337 337 340 340 339 340 338 338 340
325 325 327 329 331 333 334 338 345 344 342 339 335 336 335 327 323 326 328 330 333 335 336 336 336 338 338 337 337 337 336 330
317 315 322 323 326 327 330 326 329 328 327 326 328 325 323 321 319 323 327 331 332 334 335 336 337 337 336 329 330 335 326 329
315 313 316 318 320 320 321 321 322 323 321 321 325 323 320 321 319 320 319 320 320 327 324 328 328 329 329 326 325 325 326 328
311 313 317 317 318 318 320 320 320 320 320 320 322 321 319 318 318 318 318 319 320 321 321 322 324 326 326 326 325 324 324 326
310 314 316 318 319 320 321 320 319 320 321 320 320 321 320 318 318 318 320 322 322 319 319 320 321 323 324 324 323 323 322 325
312 314 318 319 321 322 320 320 320 321 321 321 321 322 322 320 319 319 322 322 318 317 318 319 320 321 322 321 322 322 322 325
315 318 319 319 321 321 320 320 320 320 322 322 322 323 323 321 320 320 321 320 317 318 318 318 319 320 320 320 321 321 322 324
317 318 318 324 321 320 318 319 320 322 322 322 322 322 324 323 322 319 318 317 318 318 317 317 317 317 318 318 318 319 322 323
318 317 318 320 319 318 318 319 319 321 321 322 323 323 324 324 323 319 317 317 319 318 316 316 316 317 316 316 318 319 320 322
316 317 317 317 316 318 318 317 319 319 321 323 323 323 325 324 322 318 316 319 319 316 315 315 315 317 317 316 321 320 319 320
316 316 316 316 317 317 315 317 317 318 319 321 322 325 326 324 322 319 317 319 319 316 315 315 315 317 315 316 315 314 321 324
315 316 315 316 317 316 316 319 319 318 321 322 321 325 327 325 322 319 318 319 318 316 315 315 316 316 315 316 313 312 310 317
315 315 317 316 317 316 320 319 318 319 320 319 319 321 322 326 325 322 321 319 317 316 314 315 316 316 313 317 317 313 309 309
315 317 317 317 316 319 319 318 316 316 314 317 318 320 321 325 325 323 322 320 318 317 315 316 318 316 316 315 318 320 318 321
Wind_Speed
12 13 14 19 19 19 18 17 16 17 16 15 16 16 14 14 14 13 15 16 16 15 15 14 15 13 12 12 11 9 10 9
8 8 11 19 20 19 19 18 17 16 15 16 15 13 14 15 14 14 15 16 15 16 17 17 16 16 13 13 10 9 11 8
12 8 8 18 19 19 18 17 16 15 15 16 14 14 12 11 11 13 14 15 16 16 17 18 17 15 12 13 10 10 8 8
7 9 8 11 15 18 16 14 15 14 13 12 11 11 10 10 11 13 15 16 17 17 18 19 18 16 13 15 14 12 10 9
7 9 9 7 7 6 5 13 13 14 13 12 12 11 10 10 11 12 12 12 16 17 18 18 20 19 15 15 14 13 12 12
4 5 6 7 7 7 7 7 11 12 12 12 10 11 8 4 5 7 8 11 13 15 16 19 19 18 15 17 16 15 13 3
8 6 7 7 7 7 5 5 4 4 3 3 5 5 4 4 5 5 8 11 13 14 15 14 17 17 15 4 5 13 3 4
13 7 8 7 7 8 5 3 2 3 3 3 6 6 5 3 3 3 2 3 3 8 4 5 5 3 4 4 4 4 4 4
10 8 10 9 8 6 4 4 4 4 3 3 5 6 4 3 4 4 3 4 4 3 4 3 2 2 4 5 6 5 5 4
10 10 11 9 8 6 6 4 5 5 4 5 5 5 4 4 4 4 4 3 3 2 3 3 3 3 4 4 5 5 5 5
10 13 10 9 8 7 6 7 5 4 5 4 4 5 6 4 4 4 4 4 4 3 3 3 3 3 3 3 4 5 5 5
11 12 12 9 8 8 7 5 4 4 4 4 4 5 6 6 6 5 4 3 4 3 4 3 2 2 3 2 4 3 4 6
10 10 8 7 8 7 6 5 4 4 4 4 4 4 5 5 6 5 4 4 4 4 3 3 3 2 3 3 2 4 4 4
14 11 8 8 8 7 5 3 3 4 4 4 3 4 5 5 5 5 4 4 4 3 3 3 2 3 2 2 3 4 3 3
10 9 8 7 7 6 3 1 1 2 3 3 4 4 5 4 5 5 4 4 4 3 3 3 3 2 2 3 2 2 1 1
9 9 9 8 6 3 1 1 1 3 2 2 3 5 4 4 5 5 4 4 4 4 4 5 3 4 2 2 3 2 3 1
11 9 8 7 7 3 2 2 2 2 3 3 3 3 4 5 5 5 5 4 5 3 5 5 4 3 2 3 3 3 2 3
11 9 8 8 7 3 3 2 1 1 1 2 2 2 2 3 4 5 6 4 4 4 4 5 5 6 4 1 3 4 3 3
8 7 8 7 7 4 4 2 1 1 1 2 2 1 1 2 3 4 5 5 5 4 5 5 4 3 4 4 1 1 3 4
Wind_Direction
173 176 182 184 187 191 191 193 195 202 211 221 228 234 240 238 240 240 244 247 254 256 261 264 269 250 244 249 243 246 259 268
170 170 175 184 189 192 192 193 197 207 212 223 231 236 242 252 256 256 253 251 250 254 256 257 258 254 245 246 243 241 248 261
166 164 172 185 190 193 193 194 197 208 218 224 231 237 249 261 267 269 263 260 258 260 262 261 260 253 251 245 234 232 248 244
158 162 173 184 194 195 196 195 203 209 216 219 216 222 232 251 261 267 268 268 267 266 261 260 262 261 256 246 235 231 244 252
161 177 178 171 174 176 180 206 203 204 208 212 216 221 229 243 252 258 264 272 274 270 269 265 258 254 249 244 235 228 233 248
178 175 166 161 161 166 178 212 205 210 210 220 223 228 226 224 246 262 262 263 265 261 259 257 253 252 246 238 226 220 228 233
197 193 180 172 170 171 179 181 202 211 207 219 214 209 226 224 228 236 247 260 263 268 271 280 254 247 243 183 212 217 199 227
196 171 171 174 174 166 159 169 200 205 213 224 212 206 216 231 234 249 253 267 267 272 266 275 288 230 176 163 189 189 212 226
175 176 162 164 161 158 150 165 189 197 203 206 206 204 201 215 226 238 237 242 247 248 267 271 266 189 178 187 188 197 217 224
171 169 171 160 156 165 166 183 192 194 190 202 209 222 201 207 220 222 232 228 257 259 247 252 235 195 190 190 207 197 224 229
167 166 168 165 164 161 181 197 201 196 209 205 209 215 210 206 216 216 222 219 241 240 258 236 216 197 196 177 208 224 235 236
168 155 166 162 167 173 193 202 205 218 221 221 228 225 215 207 218 211 209 223 231 226 236 230 220 190 172 189 228 235 243 243
136 156 162 163 174 185 190 204 221 232 232 232 233 229 226 219 209 200 201 224 229 224 209 196 173 180 200 200 208 240 246 239
156 154 167 164 175 188 196 206 231 242 228 237 234 225 229 213 202 193 200 224 220 210 203 177 162 158 172 185 207 243 245 228
150 156 152 150 166 176 151 213 269 255 252 248 235 229 225 211 205 197 208 222 208 185 200 168 147 143 139 170 216 228 244 283
145 146 151 146 176 146 131 189 274 258 284 269 248 234 222 219 213 197 215 210 190 187 194 172 138 160 167 151 125 37 36 306
150 153 145 161 165 162 146 204 205 224 263 263 276 243 230 213 209 196 202 201 191 175 173 161 153 132 143 182 133 98 98 15
153 158 153 166 160 157 172 115 18 318 332 359 329 280 259 233 213 188 194 195 189 178 168 172 169 154 148 160 245 138 120 164
163 140 146 153 151 171 166 114 139 181 316 262 268 309 348 317 181 179 192 188 182 174 170 180 167 174 138 147 102 101 76 138